When you browse on this site, cookies collect data to enhance your experience and personalize the content and advertising you see.
Visit our Privacy Policy to learn more. By continuing to use the site, you agree to this use of cookies and data.
  • In Romania
  • List of Countries
  • For 7 days
  • Water Temperature
  • Weather Map
  • Weather Widgets
  • user-avatar
    Login

    Hourly Weather Cachungo

    Today, 19 November, Tuesday

    Time Temperature Precipitation Wind Pressure Humidity
    00:00 +27°C° 0 mm 2 mps 756 mmHg 57%
    01:00 +27°C° 0 mm 2 mps 755 mmHg 56%
    02:00 +26°C° 0 mm 2 mps 755 mmHg 55%
    03:00 +26°C° 0 mm 2 mps 755 mmHg 54%
    04:00 +26°C° 0 mm 2 mps 755 mmHg 54%
    05:00 +25°C° 0 mm 2 mps 755 mmHg 53%
    06:00 +27°C° 0 mm 2 mps 755 mmHg 48%
    07:00 +28°C° 0 mm 2 mps 756 mmHg 43%
    08:00 +30°C° 0 mm 2 mps 756 mmHg 38%
    09:00 +33°C° 0 mm 3 mps 756 mmHg 31%
    10:00 +36°C° 0 mm 3 mps 756 mmHg 25%
    11:00 +38°C° 0 mm 3 mps 755 mmHg 19%
    12:00 +39°C° 0 mm 3 mps 755 mmHg 18%
    13:00 +40°C° 0 mm 2 mps 754 mmHg 18%
    14:00 +40°C° 0 mm 2 mps 754 mmHg 17%
    15:00 +38°C° 0 mm 3 mps 754 mmHg 25%
    16:00 +35°C° 0 mm 3 mps 754 mmHg 33%
    17:00 +33°C° 0 mm 4 mps 754 mmHg 41%
    18:00 +31°C° 0 mm 3 mps 755 mmHg 45%
    19:00 +29°C° 0 mm 2 mps 755 mmHg 49%
    20:00 +28°C° 0 mm 2 mps 756 mmHg 52%
    21:00 +28°C° 0 mm 1 mps 756 mmHg 47%
    22:00 +28°C° 0 mm 1 mps 756 mmHg 43%
    23:00 +28°C° 0 mm 1 mps 756 mmHg 38%

    Tomorrow, 20 November, Wednesday

    Time Temperature Precipitation Wind Pressure Humidity
    00:00 +28°C° 0 mm 1 mps 755 mmHg 36%
    01:00 +27°C° 0 mm 2 mps 755 mmHg 34%
    02:00 +26°C° 0 mm 2 mps 755 mmHg 33%
    03:00 +26°C° 0 mm 2 mps 755 mmHg 33%
    04:00 +25°C° 0 mm 2 mps 755 mmHg 34%
    05:00 +25°C° 0 mm 3 mps 755 mmHg 34%
    06:00 +26°C° 0 mm 3 mps 755 mmHg 34%
    07:00 +27°C° 0 mm 3 mps 756 mmHg 33%
    08:00 +29°C° 0 mm 3 mps 756 mmHg 32%
    09:00 +32°C° 0 mm 4 mps 756 mmHg 29%
    10:00 +35°C° 0 mm 4 mps 756 mmHg 25%
    11:00 +37°C° 0 mm 5 mps 755 mmHg 22%
    12:00 +38°C° 0 mm 4 mps 755 mmHg 22%
    13:00 +40°C° 0 mm 4 mps 755 mmHg 21%
    14:00 +40°C° 0 mm 3 mps 754 mmHg 21%
    15:00 +38°C° 0 mm 3 mps 754 mmHg 28%
    16:00 +36°C° 0 mm 3 mps 754 mmHg 35%
    17:00 +35°C° 0 mm 3 mps 754 mmHg 41%
    18:00 +33°C° 0 mm 3 mps 755 mmHg 52%
    19:00 +30°C° 0 mm 2 mps 755 mmHg 64%
    20:00 +28°C° 0 mm 2 mps 756 mmHg 75%
    21:00 +27°C° 0 mm 2 mps 756 mmHg 73%
    22:00 +27°C° 0 mm 2 mps 756 mmHg 71%
    23:00 +27°C° 0 mm 2 mps 756 mmHg 69%

    Day after tomorrow, 21 November, Thursday

    Time Temperature Precipitation Wind Pressure Humidity
    00:00 +26°C° 0 mm 2 mps 756 mmHg 66%
    01:00 +26°C° 0 mm 2 mps 755 mmHg 64%
    02:00 +25°C° 0 mm 1 mps 755 mmHg 62%
    03:00 +25°C° 0 mm 1 mps 755 mmHg 61%
    04:00 +25°C° 0 mm 1 mps 755 mmHg 60%
    05:00 +24°C° 0 mm 1 mps 755 mmHg 60%
    06:00 +25°C° 0 mm 2 mps 756 mmHg 53%
    07:00 +27°C° 0 mm 2 mps 756 mmHg 47%
    08:00 +28°C° 0 mm 2 mps 756 mmHg 41%
    09:00 +31°C° 0 mm 2 mps 756 mmHg 35%
    10:00 +35°C° 0 mm 2 mps 756 mmHg 30%
    11:00 +37°C° 0 mm 2 mps 756 mmHg 24%
    12:00 +38°C° 0 mm 2 mps 755 mmHg 24%
    13:00 +39°C° 0 mm 2 mps 755 mmHg 23%
    14:00 +40°C° 0 mm 3 mps 754 mmHg 22%
    15:00 +37°C° 0 mm 3 mps 754 mmHg 30%
    16:00 +35°C° 0 mm 3 mps 754 mmHg 38%
    17:00 +33°C° 0 mm 3 mps 754 mmHg 45%
    18:00 +30°C° 0 mm 3 mps 754 mmHg 52%
    19:00 +29°C° 0 mm 3 mps 755 mmHg 59%
    20:00 +27°C° 0 mm 2 mps 755 mmHg 65%
    21:00 +27°C° 0 mm 2 mps 755 mmHg 64%
    22:00 +26°C° 0 mm 2 mps 755 mmHg 63%
    23:00 +26°C° 0 mm 2 mps 756 mmHg 63%

    22 November, Friday

    Time Temperature Precipitation Wind Pressure Humidity
    00:00 +26°C° 0 mm 2 mps 755 mmHg 63%
    01:00 +25°C° 0 mm 2 mps 755 mmHg 63%
    02:00 +25°C° 0 mm 2 mps 755 mmHg 64%
    03:00 +24°C° 0 mm 2 mps 755 mmHg 61%
    04:00 +24°C° 0 mm 2 mps 755 mmHg 59%
    05:00 +23°C° 0 mm 1 mps 755 mmHg 57%
    06:00 +25°C° 0 mm 2 mps 756 mmHg 51%
    07:00 +26°C° 0 mm 2 mps 756 mmHg 46%
    08:00 +28°C° 0 mm 2 mps 756 mmHg 40%
    09:00 +30°C° 0 mm 2 mps 756 mmHg 34%
    10:00 +34°C° 0 mm 3 mps 756 mmHg 29%
    11:00 +37°C° 0 mm 3 mps 756 mmHg 23%
    12:00 +38°C° 0 mm 3 mps 756 mmHg 23%
    13:00 +39°C° 0 mm 3 mps 755 mmHg 22%
    14:00 +40°C° 0 mm 3 mps 754 mmHg 21%
    15:00 +37°C° 0 mm 3 mps 754 mmHg 30%
    16:00 +35°C° 0 mm 3 mps 754 mmHg 39%
    17:00 +31°C° 0 mm 3 mps 754 mmHg 48%
    18:00 +30°C° 0 mm 3 mps 754 mmHg 54%
    19:00 +28°C° 0 mm 3 mps 755 mmHg 60%
    20:00 +27°C° 0 mm 2 mps 755 mmHg 66%
    21:00 +26°C° 0 mm 2 mps 756 mmHg 67%
    22:00 +26°C° 0 mm 2 mps 756 mmHg 67%
    23:00 +26°C° 0 mm 2 mps 756 mmHg 68%

    23 November, Saturday

    Time Temperature Precipitation Wind Pressure Humidity
    00:00 +25°C° 0 mm 2 mps 756 mmHg 68%
    01:00 +25°C° 0 mm 2 mps 755 mmHg 68%
    02:00 +25°C° 0 mm 2 mps 755 mmHg 67%
    03:00 +24°C° 0 mm 2 mps 755 mmHg 66%
    04:00 +24°C° 0 mm 1 mps 755 mmHg 65%
    05:00 +23°C° 0 mm 1 mps 755 mmHg 65%
    06:00 +25°C° 0 mm 1 mps 756 mmHg 58%
    07:00 +26°C° 0 mm 1 mps 756 mmHg 51%
    08:00 +28°C° 0 mm 1 mps 756 mmHg 45%
    09:00 +31°C° 0 mm 2 mps 756 mmHg 38%
    10:00 +35°C° 0 mm 2 mps 756 mmHg 31%
    11:00 +37°C° 0 mm 2 mps 756 mmHg 24%
    12:00 +38°C° 0 mm 3 mps 755 mmHg 23%
    13:00 +39°C° 0 mm 3 mps 755 mmHg 22%
    14:00 +40°C° 0 mm 3 mps 754 mmHg 21%
    15:00 +37°C° 0 mm 3 mps 754 mmHg 30%
    16:00 +35°C° 0 mm 3 mps 754 mmHg 40%
    17:00 +31°C° 0 mm 3 mps 754 mmHg 49%
    18:00 +30°C° 0 mm 3 mps 754 mmHg 53%
    19:00 +28°C° 0 mm 3 mps 755 mmHg 58%
    20:00 +27°C° 0 mm 3 mps 755 mmHg 63%
    21:00 +26°C° 0 mm 2 mps 755 mmHg 63%
    22:00 +26°C° 0 mm 2 mps 755 mmHg 64%
    23:00 +26°C° 0 mm 2 mps 756 mmHg 65%

    24 November, Sunday

    Time Temperature Precipitation Wind Pressure Humidity
    00:00 +25°C° 0 mm 2 mps 755 mmHg 65%
    01:00 +25°C° 0 mm 2 mps 755 mmHg 65%
    02:00 +24°C° 0 mm 2 mps 755 mmHg 66%
    03:00 +24°C° 0 mm 2 mps 755 mmHg 65%
    04:00 +24°C° 0 mm 1 mps 755 mmHg 64%
    05:00 +23°C° 0 mm 1 mps 755 mmHg 64%
    06:00 +25°C° 0 mm 1 mps 755 mmHg 59%
    07:00 +27°C° 0 mm 1 mps 756 mmHg 55%
    08:00 +29°C° 0 mm 1 mps 756 mmHg 51%
    09:00 +31°C° 0 mm 2 mps 756 mmHg 42%
    10:00 +35°C° 0 mm 2 mps 756 mmHg 34%
    11:00 +38°C° 0 mm 3 mps 756 mmHg 25%
    12:00 +39°C° 0 mm 3 mps 755 mmHg 24%
    13:00 +40°C° 0 mm 3 mps 754 mmHg 23%
    14:00 +41°C° 0 mm 4 mps 753 mmHg 22%
    15:00 +38°C° 0 mm 3 mps 753 mmHg 30%
    16:00 +36°C° 0 mm 3 mps 753 mmHg 39%
    17:00 +34°C° 0 mm 3 mps 753 mmHg 47%
    18:00 +31°C° 0 mm 3 mps 754 mmHg 59%
    19:00 +29°C° 0 mm 2 mps 755 mmHg 70%
    20:00 +27°C° 0 mm 2 mps 755 mmHg 81%
    21:00 +26°C° 0 mm 2 mps 755 mmHg 80%
    22:00 +26°C° 0 mm 2 mps 755 mmHg 79%
    23:00 +26°C° 0 mm 2 mps 756 mmHg 79%
    Show more